Regional Weather Roundup
Issued by NWS

Home | Current Version | Previous Version | Text Only | Print | Product List | Glossary Off
Versions: 1 2 3 4 5 6 7 8 9 10 11 12 13 14 15 16 17 18 19 20 21 22 23 24 25 26 27

000
ASUS45 KBOU 281907
RWRCO

WEATHER ROUNDUP FOR COLORADO
NATIONAL WEATHER SERVICE DENVER/BOULDER CO
100 PM MDT TUE MAR 28 2017

NOTE: "FAIR" INDICATES FEW OR NO CLOUDS BELOW 12000 FEET WITH NO
SIGNIFICANT WEATHER AND/OR OBSTRUCTIONS TO VISIBILITY.

COZ001>005-013-030-031-282000-
...NORTHWEST COLORADO...

CITY           SKY/WX    TMP DP  RH WIND       PRES   REMARKS
CRAIG          LGT RAIN  40  37  89 SW10      29.93F
HAYDEN         CLOUDY    36  30  80 SW3       29.93F
MEEKER         LGT RAIN  40  38  93 SW5       29.94S
MOUNT WERNER   NOT AVBL
STEAMBOAT SPGS CLOUDY    34  33  98 SW3       29.92S
WALDEN         NOT AVBL
$$

COZ006>008-011-282000-
...WEST CENTRAL VALLEYS...

CITY           SKY/WX    TMP DP  RH WIND       PRES   REMARKS
GRAND JUNCTION LGT RAIN  48  39  71 NW6G16    29.92R
MONTROSE       CLOUDY    43  39  86 NW9       29.92S
EAGLE          PTSUNNY   46  34  61 CALM      29.89F
RIFLE          CLOUDY    50  35  56 W14       29.89F
DELTA          CLOUDY    49  41  72 CALM      29.89F
NUCLA          LGT RAIN  43  39  87 NW8       29.92S
$$

COZ017>023-064>068-282000-
...SOUTHWEST COLORADO...

CITY           SKY/WX    TMP DP  RH WIND       PRES   REMARKS
DURANGO        FAIR      47  30  51 SW5       29.82F
CORTEZ         CLOUDY    46  39  76 W12       29.85F
PAGOSA SPRINGS FAIR      47  30  51 W7        29.81F
TELLURIDE      LGT SNOW  36  31  82 W5        29.91F
WOLF CREEK PAS CLOUDY    28  19  69 N6        29.95F WCI  22
$$

COZ009-010-012-014-032>034-037-058>063-282000-
...CENTRAL COLORADO...

CITY           SKY/WX    TMP DP  RH WIND       PRES   REMARKS
ASPEN          LGT RAIN  40  34  79 CALM      29.86F
BUENA VISTA    FAIR      51  21  30 SE5       29.80F
COPPER MTN     LGT SNOW  32  25  74 CALM      29.95S
BERTHOUD PASS  HAZE      23  12  63 NE6       29.95F VSB<1/4 WCI  16
COTTONWOOD PAS FAIR      50  18  27 N3        29.86F
GUNNISON       PTSUNNY   45  32  60 SW14      29.85F
KREMMLING      PTSUNNY   46  39  76 N13G18    29.89F
LEADVILLE      CLOUDY    39  20  46 N6        29.86F
MONARCH PASS   LGT SNOW  27  23  86 E3        30.03S VSB 3/4
SALIDA         FAIR      56  22  26 SE6       29.87F
SUNLIGHT       SNOW      28  27  93 W6        29.98S VSB<1/4 WCI  22
WILKERSON PASS CLOUDY    34  28  80 NE5       29.94F WCI  30
$$

COZ069>075-282000-
...SAN LUIS VALLEY/SANGRE DE CRISTO MOUNTAINS...

CITY           SKY/WX    TMP DP  RH WIND       PRES   REMARKS
ALAMOSA        PTSUNNY   52  24  33 VRB5      29.79F
LA VETA PASS   NOT AVBL
SAGUACHE       FAIR      52  23  32 NW3       29.80F
$$

COZ035-036-038>040-282000-
...NORTHERN COLORADO FRONT RANGE...

CITY           SKY/WX    TMP DP  RH WIND       PRES   REMARKS
DENVER INTL AP CLOUDY    46  40  79 NW16      29.85S
DMNS CITY PARK   N/A     44  39  81 N10G20    29.87S
AURORA         CLOUDY    43  43  99 NW13      29.87F
FRONT RANGE AP CLOUDY    48  43  81 NW14      29.86S
ERIE MUNI ARPT CLOUDY    45  40  83 N13G18    29.88S
BOULDER MUN AP RAIN      43  41  93 N7        29.88S
CENTENNIAL     CLOUDY    42  38  85 N14       29.87S
BROOMFIELD     CLOUDY    45  39  81 N17       29.88R
FORT COLLINS   LGT RAIN  44  41  89 N17       29.90R
LONGMONT       CLOUDY    48  39  72 N16       29.90S
$$

COZ041-046-047-076>085-087-088-282000-
...PIKES PEAK/PALMER DIVIDE AND SOUTHERN FOOTHILLS...

CITY           SKY/WX    TMP DP  RH WIND       PRES   REMARKS
COLO. SPRINGS  PTSUNNY   50  36  58 N17G24    29.84F
A. F. ACADEMY  CLOUDY    43  37  78 N13       29.86R
SCHRIEVER AFB  LGT RAIN  46  37  71 N16G23    29.84F
ELLICOTT         N/A    N/A N/A N/A E14       29.83F
FALCON         CLOUDY    46  37  70 N15       29.87R
FORT CARSON    LGT RAIN  50  37  62 N17       29.82F
LIMON          CLOUDY    44  43  96 S7        29.87S
MONUMENT HILL  CLOUDY    37  36  93 N12       29.89S
TRINIDAD       PTSUNNY   53  36  52 SE7       29.79F
$$

COZ042>045-048>051-090-091-282000-
...NORTHEAST COLORADO...

CITY           SKY/WX    TMP DP  RH WIND       PRES   REMARKS
GREELEY ARPT   CLOUDY    47  42  83 N12       29.89R
AKRON          LGT RAIN  46  44  93 SE14      29.87R FOG
BURLINGTON     LGT RAIN  45  44  97 SE22G30   29.88S
WRAY           NOT AVBL
STERLING       CLOUDY    46  45  93 SE10      29.87S
HOLYOKE        LGT RAIN  46  43  87 E14       29.92S
FORT MORGAN    CLOUDY    49  40  69 E3        29.87R
$$

COZ086-089-092>099-282000-
...SOUTHEAST COLORADO...

CITY           SKY/WX    TMP DP  RH WIND       PRES   REMARKS
PUEBLO         PTSUNNY   55  42  61 E9        29.80F
LA JUNTA       FAIR      52  47  83 E18       29.79F
LAMAR          RAIN      47  45  93 SE9       29.85R FOG
SPRINGFIELD      N/A     44  44 100 E8        29.85R
$$




USA.gov is the U.S. government's official web portal to all federal, state and local government web resources and services.